Weather Service Report


365 
ASUS41 KGYX 200610
RWRGYX
WEATHER ROUNDUP FOR MAINE AND NEW HAMPSHIRE
NATIONAL WEATHER SERVICE GRAY ME
100 AM EST SAT DEC 20 2014

MEZ002-005-006-010-012-015-018-020-021-024-026-027-029-200700-
MAINE
  
CITY           SKY/WX    TMP DP  RH WIND       PRES   REMARKS
PORTLAND       CLEAR     27  18  69 CALM      30.17R                  
6HR MIN TEMP:  26; 6HR MAX TEMP:  32;                                

SANFORD        CLEAR     19  12  73 W3        30.16R                  
BAR HARBOR     CLEAR     25  21  86 N13       30.14R WCI  13          
WISCASSET      CLEAR     26  17  68 CALM      30.16S                  
6HR MIN TEMP:  24; 6HR MAX TEMP:  28;                                

ROCKLAND       CLEAR     28  18  64 N9G22     30.13S                  
FRYEBURG       CLEAR     16  13  88 CALM      30.16R                  
6HR MIN TEMP:  14; 6HR MAX TEMP:  24;                                

LEWISTONAUBURN CLEAR     21  18  86 CALM      30.14R                  
AUGUSTA        CLEAR     23  15  71 N8        30.15S                  
6HR MIN TEMP:  21; 6HR MAX TEMP:  27;                                

WATERVILLE     CLEAR     23  12  63 N9        30.12F                  
BANGOR         CLEAR     16  14  92 CALM      30.18R                  
6HR MIN TEMP:  16; 6HR MAX TEMP:  25;                                

GREENVILLE       N/A     17  13  84 NW14      30.09R WCI   3          
6HR MIN TEMP:  17; 6HR MAX TEMP:  19;                                

MILLINOCKET    CLEAR     15  12  88 W3        30.18R                  
6HR MIN TEMP:  13; 6HR MAX TEMP:  21;                                

HOULTON        CLEAR     11   7  84 NE3       30.15R                  
6HR MIN TEMP:  10; 6HR MAX TEMP:  23;                                

PRESQUE ISLE   PTCLDY     3   1  92 CALM      30.15R                  
6HR MIN TEMP:   3; 6HR MAX TEMP:  21;                                

FRENCHVILLE    PTCLDY    13  10  88 NW6       30.14R                  
6HR MIN TEMP:  12; 6HR MAX TEMP:  18;                                

CARIBOU        PTCLDY    12   9  87 NW9       30.15R                  
6HR MIN TEMP:  11; 6HR MAX TEMP:  17;                                

$$

NHZ002-005-008-009-011-012-014-200700-
NEW HAMPSHIRE
  
CITY           SKY/WX    TMP DP  RH WIND       PRES   REMARKS
PORTSMOUTH     PTCLDY    25  20  82 W3        30.16R                  
ROCHESTER      CLEAR     24  19  81 NW7       30.15R                  
6HR MIN TEMP:  24; 6HR MAX TEMP:  29;                                

NASHUA         CLEAR     25  20  81 NW5       30.18R                  
MANCHESTER     PTCLDY    25  19  78 N9        30.16R                  
6HR MIN TEMP:  25; 6HR MAX TEMP:  29;                                

CONCORD        PTCLDY    23  18  81 NW5       30.17R                  
6HR MIN TEMP:  22; 6HR MAX TEMP:  27;                                

LACONIA        CLEAR     21  18  86 SW5       30.14R                  
PLYMOUTH       FAIR      23  20  90 W12       30.18R WCI  12          
BERLIN         PTCLDY     6   1  80 CALM      30.15S                  
6HR MIN TEMP:   5; 6HR MAX TEMP:  21;                                

WHITEFIELD     CLOUDY    19  14  81 N5        30.16R                  
6HR MIN TEMP:  19; 6HR MAX TEMP:  23;                                

JAFFREY        CLEAR     20  17  88 CALM      30.13R                  
6HR MIN TEMP:  20; 6HR MAX TEMP:  26;                                

KEENE          PTCLDY    25  18  74 N6        30.17S                  
LEBANON        CLOUDY    23  16  74 NW6       30.20R                  
6HR MIN TEMP:  23; 6HR MAX TEMP:  26;                                

MT WASHINGTON  PTCLDY    23  16  74 NE18        N/A  WCI   9          
6HR MIN TEMP:  19; 6HR MAX TEMP:  23;                                

$$

VTZ005-007-008-200700-
VERMONT
  
CITY           SKY/WX    TMP DP  RH WIND       PRES   REMARKS
ST JOHNSBURY     N/A     17  13  84 MISG      30.19R                  
MONTPELIER     PTCLDY    14  12  92 CALM      30.21R                  
BURLINGTON     PTCLDY    18  12  77 CALM      30.24S                  
$$

MAZ007-012-024-CTZ003-RIZ002-NYZ038-NYZ072-200700-
SOUTHERN NEW ENGLAND AND NY
  
CITY           SKY/WX    TMP DP  RH WIND       PRES   REMARKS
BOSTON         CLEAR     28  21  75 NW7       30.17R                  
WORCESTER      CLEAR     24  18  77 N8        30.10S                  
NANTUCKET      CLOUDY    37  27  67 NW10      30.12R                  
PROVIDENCE     CLEAR     27  20  75 NW5       30.16R                  
HARTFORD       PTCLDY    27  19  72 N6        30.17R                  
ALBANY         CLOUDY    26  18  71 NW10      30.23R WCI  16          
NEW YORK CITY  CLOUDY    32  22  66 N10       30.19F                  
$$

ANZ081-ANZ082-ANZ150-NHZ014-MEZ023>029-200700-
COASTAL MARINE OBSERVATIONS
  
STATION/POSITION TIME  TEMP    WIND        PRES    WAVE
                       AIR SEA DIR/SP/G            HT/PER
                 (UTC) (F)     (DEG/KT/KT) (MB)    (FT/S)
MOUNT DESERT ROC 0600   31                 1019.3R
MATINICUS ROCK   0600           20/ 20/ 25 1019.4R
PORTLAND WX BUOY 0550   32 43   20/ 17/ 19 1020.7R   2/ 3
WELLS            0500   27 41  340/  5/  6 1020.0R
ISLE OF SHOALS   0600   31     340/ 13/ 15 1020.6R
JEFFREYS LEDGE   0521      49                N/A     3/ 4
CASHES LEDGE BUO 0550   35 48   10/ 14/ 17 1019.5R   3/ 5
$$

.............KEY..............
   WCI - WIND CHILL
   TC  - TEMPERATURE IN CELSIUS
   VSB - VISIBILITY IN MILES
   HX  - HEAT INDEX
   FAIR- INDICATES FEW OR NO CLOUDS BELOW 12,000 FT, WITH NO 
         SIGNIFICANT WEATHER AND/OR OBSTRUCTIONS TO VISIBILITY.



Return to Home page


Western Regional Climate Center, wrcc@dri.edu